シンガー・ブルースター彗星

105P/Singer Brewster (2018)

English version
Home page
Updated on October 22, 2018

---------------------------------------------------------------------

・ プロフィール

・ 写真集

・ 軌道要素

Epoch 2018 Aug. 30.0 TT = JDT 2458360.5
T 2018 Aug. 10.31970 TT                                 MPCW
q   2.0445353            (2000.0)            P               Q
n   0.15259484     Peri.   46.47650     -0.51843778     +0.85442635
a   3.4682428      Node   192.42967     -0.82333831     -0.50960941
e   0.4104982      Incl.    9.17497     -0.23094652     -0.10126134
P   6.46
From 289 observations 1993 July 20-2018 Jan. 24, mean residual 0".7.
     Nongravitational parameters A1 = +0.04, A2 = -0.0735.

・ 光度変化

        m1 = 7.8 + 5 logΔ + 25 log r

---------------------------------------------------------------------

軌道要素はM.P.E.C. 2018-B156に掲載されたものです。
光度グラフはComet for Windowsで作成したものです。

---------------------------------------------------------------------

Copyright(C) Seiichi Yoshida (comet@aerith.net). All rights reserved.